Regional Weather Roundup
Issued by NWS

Home | Current Version | Previous Version | Graphics & Text | Print | Product List | Glossary On
Versions: 1 2 3 4 5 6 7 8 9 10 11 12 13 14 15 16 17 18 19 20 21 22 23 24 25 26 27 28 29 30 31 32 33 34 35 36 37 38 39 40 41 42 43 44 45 46 47 48 49 50
000
ASUS43 KLMK 290402
RWRKY
KENTUCKY REGIONAL WEATHER ROUNDUP
NATIONAL WEATHER SERVICE LOUISVILLE KY
1200 AM EDT FRI APR 29 2016

NOTE "FAIR" INDICATES FEW OR NO CLOUDS BELOW 12,000 FEET
WITH NO SIGNIFICANT WEATHER AND/OR OBSTRUCTIONS TO VISIBILITY.

KYZ001>023-026-027-061>063-070>075-290500-
WESTERN AND SOUTH CENTRAL KENTUCKY

CITY           SKY/WX    TMP DP  RH WIND       PRES   REMARKS
PADUCAH        CLEAR     57  52  83 CALM      29.97S
HENDERSON      CLEAR     61  54  77 N5        29.97S
OWENSBORO      CLEAR     65  54  67 NW3       29.98R
HOPKINSVILLE   CLEAR     63  53  70 W2        29.98R
BOWLING GREEN  CLEAR     66  51  58 W5        29.98R
GLASGOW        NOT AVBL
$$

KYZ024-025-028>034-038-045-046-053-290500-
NORTH CENTRAL KENTUCKY

CITY           SKY/WX    TMP DP  RH WIND       PRES   REMARKS
LOUISVILLE/SDF PTCLDY    64  50  60 NW8       29.96R
LOUISVILLE/LOU CLEAR     64  50  60 NW6       29.96R
FORT KNOX      CLEAR     56  52  84 W5        29.96R
$$

KYZ035>037-039>044-047>052-055>060-089>105-290500-
NORTHEAST KENTUCKY

CITY           SKY/WX    TMP DP  RH WIND       PRES   REMARKS
LEXINGTON      CLEAR     61  48  62 SW3       29.96R
COVINGTON      CLEAR     60  57  89 N5        29.94S
FRANKFORT      CLEAR     58  49  72 CALM      29.94R
$$

KYZ054-064>069-076>088-106>120-290500-
SOUTHEAST KENTUCKY

CITY           SKY/WX    TMP DP  RH WIND       PRES   REMARKS
JACKSON        CLEAR     66  52  60 W5        29.97R
LONDON         CLEAR     64  54  69 W3        29.98R
SOMERSET       NOT AVBL
MIDDLESBORO    CLEAR     60  57  88 W5        29.98R
MONTICELLO     CLEAR     57  55  93 VRB7      30.00R
$$





USA.gov is the U.S. government's official web portal to all federal, state and local government web resources and services.